Location: Dingsheim
(48.6295°N, 7.6688°E)
Time: 15:44:57
(UTC+00:00)

Daily predictions for brighter satellites

Satellite Brightness Start Highest point End
(mag) Time Altitude Azimuth Time Altitude Azimuth Time Altitude Azimuth
SJ 16-02 2.5 19:50:50 10° SSE 19:54:22 24° E 19:57:55 10° NE
H-2A R/B 4.4 19:50:50 10° SSW 19:54:40 30° W 19:58:25 10° NW
Cosmos 1340 2.9 19:51:34 10° S 19:55:12 50° E 19:58:50 10° NNE
Cosmos 2082 3.8 19:53:06 10° NNW 19:58:46 79° ENE 20:04:23 10° SSE
Meteor 1-11 Rocket 4.0 19:53:50 10° NNW 19:59:50 80° W 20:05:46 10° S
Cosmos 482 Debris 3.7 19:58:35 10° WNW 20:01:08 74° NNE 20:04:59 10° ESE
Cosmos 2263 Rocket 2.8 19:56:27 10° NNW 20:01:51 46° NE 20:07:11 10° SE
Cosmos 1470 Rocket 3.7 19:57:49 10° NNW 20:02:10 75° W 20:06:27 10° S
Cosmos 1743 2.6 20:01:36 10° N 20:05:24 86° E 20:09:10 10° S
Ariane Rocket 3.0 20:01:28 10° SSE 20:06:32 87° ENE 20:11:40 10° NNW
BREEZE-M DEB (TANK) 1.7 20:08:37 10° W 20:11:28 85° N 20:13:37 10° ENE
IRAS Rocket 4.3 20:05:52 10° NNE 20:11:31 76° ESE 20:17:09 10° SSW
SPOT 5 3.7 20:06:49 10° SE 20:11:44 41° ENE 20:16:29 10° N
Terra 3.0 20:09:20 10° ESE 20:13:23 29° ENE 20:17:28 10° N
Resurs 01 Rocket 2.1 20:10:59 10° S 20:15:19 60° W 20:19:42 10° NNW
Aureole 1 Rocket 2.2 20:14:01 10° SSW 20:17:11 83° WNW 20:20:10 10° NNE
Cosmos 1515 Rocket 3.7 20:13:35 10° SSW 20:17:57 82° WNW 20:22:23 10° N
Cosmos 2227 Rocket 3.4 20:14:33 10° NW 20:19:44 37° WSW 20:24:53 10° S
Cosmos 921 Rocket 3.1 20:16:33 10° NNW 20:21:06 88° WSW 20:25:35 10° SSE
Cosmos 1980 Rocket 2.2 20:24:27 10° SSW 20:30:03 73° ESE 20:35:44 10° NNE
Cosmos 1869 Rocket 3.7 20:26:01 10° N 20:30:30 65° ENE 20:34:33 12° SSE
SL-24 R/B - RUBIN 2 4.1 20:26:25 10° NNW 20:30:42 50° NE 20:34:40 12° ESE
CARTOSAT-1 3.6 20:26:26 10° SSE 20:30:45 86° WSW 20:35:05 10° NNW
Cosmos 2228 Rocket 3.4 20:29:14 10° SSE 20:33:38 49° E 20:38:02 10° NNE
Cosmos 1464 Rocket 4.2 20:28:34 10° SSW 20:34:46 78° W 20:40:57 10° N
Cosmos 1378 3.8 20:34:31 14° SSE 20:37:12 35° E 20:40:34 10° NNE
Cosmos 2344 3.5 20:30:49 10° SSW 20:38:16 79° SE 20:46:02 10° NE
ISS -3.8 20:35:31 10° WNW 20:38:53 79° SSW 20:41:27 16° ESE
Cosmos 2322 Rocket 3.6 20:36:17 13° SE 20:38:59 18° E 20:42:43 10° ENE
Cosmos 1777 Rocket 4.2 20:34:20 10° S 20:39:21 51° ESE 20:44:26 10° NNE
Cosmos 2369 3.8 20:34:05 10° SSW 20:39:45 86° WNW 20:45:28 10° NNE
Spot 2 Rocket 3.5 20:35:42 13° SSE 20:40:14 72° ENE 20:45:17 10° N
Cosmos 1354 Rocket 4.0 20:35:17 10° SSW 20:40:33 80° ESE 20:45:53 10° NNE
Cosmos 773 Rocket 4.0 20:35:32 10° NNW 20:40:47 83° WSW 20:45:19 14° SSE
Cosmos 1536 4.4 20:37:14 10° NNW 20:40:53 33° W 20:44:31 10° SSW
Cosmos 1844 Rocket 4.2 20:36:30 10° N 20:41:08 26° NE 20:45:43 10° E
SPOT 3 Rocket 3.7 20:36:18 10° S 20:41:26 75° WSW 20:46:37 10° NNW
ATLAS 2AS CENTAUR R/B 3.0 20:35:20 10° SSW 20:43:00 63° ESE 20:50:27 10° NE
Okean 1 3.3 20:40:55 10° S 20:44:55 88° E 20:48:59 10° N
Meteor 2-4 Rocket 4.2 20:40:22 12° SSE 20:45:27 45° E 20:50:48 10° NNE
H-2A R/B 4.2 20:41:59 10° N 20:45:27 27° WNW 20:48:56 10° WSW
Cosmos 1092 Rocket 4.0 20:40:36 10° N 20:46:47 70° ENE 20:52:05 14° SSE
Meteor 1-19 Rocket 4.1 20:41:38 10° S 20:47:03 82° E 20:52:29 10° NNE
Nadezhda 4 Rocket 4.2 20:41:23 10° NNW 20:47:35 71° W 20:53:42 10° S
NOSS 3-4 (A) 4.3 20:42:12 10° WSW 20:47:52 53° NW 20:54:04 10° NE
NOSS 3-4 (C) 4.3 20:42:14 10° WSW 20:47:55 54° NW 20:54:09 10° NE
RESURS DK-1 2.3 20:44:48 10° SSW 20:48:52 63° ESE 20:52:58 10° NE
Cosmos 1697 Rocket 3.8 20:43:37 10° SW 20:49:04 48° NW 20:54:35 10° NNE
SL-4 R/B 4.0 20:46:05 10° W 20:49:22 20° SW 20:52:09 11° S
USA 267 4.3 20:48:04 10° ENE 20:54:13 45° N 21:00:21 10° WNW
Cosmos 1634 Rocket 4.2 20:49:58 13° SSE 20:55:28 55° E 21:01:30 10° NNE
ATLAS CENTAUR R/B 3.7 20:52:43 10° NNW 20:56:42 24° NNE 21:00:34 10° E
ARIANE 5 R/B 3.0 20:53:39 18° SE 20:56:48 54° ENE 21:01:12 10° N
Cosmos 1707 Rocket 3.9 20:54:13 17° SSE 20:57:20 47° E 21:01:35 10° NNE
Cosmos 44 Rocket 3.2 20:53:26 10° NW 20:58:11 88° ENE 21:01:28 20° SE
Cosmos 2227 4.2 20:57:58 10° NNW 21:03:46 85° ENE 21:07:59 19° SSE
Cosmos 158 Rocket 4.0 21:00:29 10° NNW 21:05:38 86° WSW 21:09:24 19° SSE
ATLAS 3B R/B 3.0 20:59:56 10° NW 21:07:17 75° NE 21:13:24 17° SE
NOSS 2-1 (E) 3.5 21:08:10 26° SSE 21:09:06 32° ESE 21:12:01 10° ENE
Cosmos 1975 2.8 21:06:49 10° N 21:10:54 84° W 21:13:33 21° S
Cosmos 2026 Rocket 4.0 21:05:52 10° N 21:12:03 90° W 21:17:00 17° S
USA 81 4.1 21:09:01 17° S 21:13:00 67° E 21:18:15 10° N
CZ-4B R/B 4.4 21:14:29 10° NNW 21:16:02 13° WNW 21:17:34 10° W
ERS-1 Rocket 3.2 21:12:33 17° S 21:16:26 67° WSW 21:21:29 10° NNW
SL-16 R/B 2.5 21:13:28 15° S 21:17:52 49° ESE 21:23:19 10° NE
Meteor 1-4 Rocket 3.4 21:15:01 10° N 21:18:14 34° ENE 21:19:36 25° ESE
CZ-4C R/B 4.1 21:12:47 10° NW 21:18:50 35° NNE 21:25:58 10° E
Cosmos 1538 Rocket 4.0 21:15:44 10° NNW 21:21:01 89° WSW 21:24:18 23° SSE
Helios 1A Rocket 4.1 21:19:01 13° SSW 21:22:09 35° W 21:25:52 10° NNW
CZ-2C R/B 3.9 21:18:37 10° NNE 21:23:24 82° WNW 21:27:47 12° SSW
GENESIS II 4.1 21:20:46 13° SSW 21:24:10 61° SE 21:28:04 10° NE
Cosmos 1733 Rocket 3.0 21:20:43 10° N 21:25:12 82° E 21:27:44 26° SSE
Meteor 2-8 Rocket 4.4 21:25:01 15° S 21:30:13 87° E 21:36:21 10° N
OE (NEXTSAT) 4.3 21:27:47 10° WSW 21:31:01 53° S 21:32:08 34° ESE
Geosat 4.0 21:28:35 24° SE 21:31:40 75° ENE 21:36:42 10° NNW
EP 1 4.5 21:29:19 17° SSW 21:31:41 66° SE 21:34:27 10° NE
SAR-Lupe-4 3.7 21:28:27 10° NNE 21:32:01 57° ESE 21:33:22 33° SSE
SJ 16-02 2.7 21:28:37 10° SW 21:32:43 39° WNW 21:36:52 10° N
Cosmos 1356 4.0 21:35:10 34° ESE 21:35:43 37° E 21:38:48 10° NNE
Cosmos 2292 Rocket 4.2 21:34:06 10° NNW 21:36:45 28° W 21:38:15 18° SW
Cosmos 1908 Rocket 4.3 21:32:39 10° N 21:36:46 40° ENE 21:38:37 26° SE
Cosmos 2278 4.3 21:32:57 10° SW 21:38:32 59° WNW 21:44:11 10° NNE
Cosmos 923 Rocket 4.3 21:33:50 10° NNW 21:39:09 62° ENE 21:42:10 26° SE
Cosmos 1862 Rocket 3.5 21:37:31 25° S 21:40:05 81° E 21:44:36 10° NNE
Cosmos 2360 Rocket 2.8 21:40:43 26° SSE 21:43:00 37° ESE 21:48:09 10° NE
Cosmos 1726 3.3 21:40:47 10° N 21:44:03 30° ENE 21:45:09 25° ESE
Cosmos 2263 Rocket 3.4 21:40:41 10° NW 21:45:36 33° WSW 21:49:11 16° SSW
Meteor 2-15 4.5 21:41:00 16° SSW 21:46:00 79° W 21:52:07 10° N
ALOS 2 4.3 21:44:37 15° ESE 21:46:53 23° ENE 21:50:19 10° NNE
Meteor 1-13 Rocket 4.4 21:44:29 26° SSE 21:47:27 55° E 21:52:51 10° NNE
Cosmos 2266 Rocket 4.3 21:41:43 10° N 21:47:53 56° ENE 21:51:20 26° SE
NOSS 2-1 (C) 2.8 21:46:44 14° SW 21:49:26 80° NW 21:52:42 10° NE
SPOT 5 4.4 21:45:43 13° SSW 21:49:50 32° W 21:54:26 10° NNW
Terra 2.8 21:47:57 18° SSW 21:51:00 40° W 21:55:30 10° NNW
Cosmos 1441 Rocket 3.0 21:51:04 35° S 21:52:31 86° E 21:56:15 10° NNE
SAR-Lupe-1 4.2 21:49:28 10° N 21:53:03 70° WNW 21:54:46 28° SSW
Cosmos 1346 Rocket 3.6 21:50:23 17° SW 21:53:14 50° WNW 21:57:11 10° N
Cosmos 2279 Rocket 4.0 21:53:29 20° SSW 21:58:01 82° W 22:04:17 10° N
Cosmos 2112 Rocket 4.3 21:54:25 10° NNW 21:59:44 61° ENE 22:02:27 28° SE
NOSS 2-1 (D) 3.2 21:56:58 12° SW 21:59:54 62° NW 22:03:10 10° NE
USA 215 3.7 21:54:07 10° ENE 22:00:13 39° SE 22:03:42 23° S
Cosmos 2278 Rocket 4.4 21:56:42 10° N 22:00:44 19° NE 22:04:45 10° E
Cosmos 1680 Rocket 3.6 21:55:30 10° NNW 22:00:49 71° ENE 22:03:26 30° SE
Cosmos 990 Rocket 3.9 21:57:54 25° S 22:00:57 73° ESE 22:06:12 10° NNE
MINOTAUR IV R/B 4.5 22:00:16 28° SSW 22:02:35 78° ESE 22:07:06 10° NNE
Iridium 2 4.1 21:59:17 10° NNW 22:02:59 56° W 22:04:23 33° SSW
Cosmos 1842 4.4 22:03:47 26° ESE 22:04:21 27° E 22:07:40 10° NNE
Meteor 1-12 Rocket 4.3 21:59:53 10° N 22:05:52 81° ENE 22:08:53 30° SSE
Cosmos 1066 Rocket 4.2 22:05:06 25° S 22:08:39 88° WNW 22:14:21 10° NNE
ADEOS Rocket 4.1 22:05:31 17° ESE 22:09:09 33° ENE 22:14:29 10° N
Cosmos 1818 3.6 22:03:42 10° NW 22:09:12 75° NE 22:12:08 28° SE
Spot 4 4.2 22:07:13 31° SE 22:09:20 57° ENE 22:14:03 10° N
Iridium 4 Rocket 3.4 22:07:14 10° N 22:11:48 66° E 22:13:44 36° SSE
Cosmos 1898 Rocket 3.5 22:11:50 31° S 22:14:18 65° ESE 22:19:35 10° NNE
Cosmos 1980 Rocket 4.4 22:10:01 10° W 22:14:38 25° NW 22:19:19 10° N
ISS -1.6 22:12:58 10° W 22:14:21 16° WSW 22:14:21 16° WSW
Okean 1-7 3.0 22:17:25 41° S 22:18:55 76° E 22:23:17 10° NNE
Iridium 51 4.1 22:21:01 49° SSW 22:21:47 70° W 22:25:21 10° N
Cosmos 2322 Rocket 2.2 22:18:02 18° SSW 22:22:21 78° WNW 22:28:00 10° NNE
Cosmos 1844 Rocket 2.7 22:19:59 10° NNW 22:25:33 70° WSW 22:27:57 35° S
Okean 3 3.4 22:25:02 45° SSE 22:26:10 69° E 22:30:25 10° NNE
Cosmos 2333 Rocket 2.6 22:25:18 34° SSE 22:27:12 46° ESE 22:32:36 10° NE
Cosmos 1805 4.2 22:23:36 10° NNW 22:27:15 39° W 22:28:28 30° SW
H-2A R/B 3.7 22:27:34 10° NNE 22:31:34 50° E 22:32:20 44° SE
Cosmos 1461 3.8 22:27:43 10° NNW 22:31:41 43° NE 22:33:55 23° ESE
BREEZE-M DEB (TANK) 3.5 22:29:55 10° W 22:31:52 28° SW 22:31:52 28° SW
ATLAS 2AS CENTAUR R/B 4.0 22:26:56 10° WSW 22:34:21 46° NW 22:41:29 10° NE
ATLAS CENTAUR R/B 1.6 22:31:14 10° NW 22:36:09 88° SW 22:37:49 41° SE
USA 267 3.4 22:30:15 10° ESE 22:36:46 73° NNE 22:43:18 10° NW
Meteor 1-23 Rocket 4.2 22:34:01 33° S 22:36:46 81° E 22:42:38 10° NNE
Cosmos 1766 3.7 22:38:39 10° NNW 22:42:29 51° W 22:43:23 41° SW
Cosmos 2219 Rocket 2.5 22:44:47 36° SSE 22:46:33 49° ESE 22:51:55 10° NE
Cosmos 1844 4.0 22:43:34 10° NW 22:49:14 56° WSW 22:51:27 35° S
Cosmos 1703 Rocket 4.0 22:48:15 33° SW 22:49:59 57° WNW 22:54:22 10° N
Cosmos 372 Rocket 3.9 22:51:17 40° S 22:53:06 73° ESE 22:58:17 10° NNE
ATLAS 3B R/B 3.9 22:51:14 10° NW 22:57:34 31° WSW 23:00:39 24° SSW
Cosmos 1707 2.8 23:00:36 54° SE 23:01:05 60° E 23:04:55 10° NNE
NOSS 3-1 (A) 4.2 22:54:20 10° NW 23:01:38 75° NE 23:08:57 15° SE
SL-16 R/B 3.7 22:57:02 10° WSW 23:02:10 34° NW 23:07:20 10° NNE
Cosmos 1782 Rocket 4.1 22:59:29 10° NNW 23:03:42 49° W 23:04:50 38° SW
ERS-2 1.9 23:02:51 10° NNE 23:06:29 87° ESE 23:06:52 70° S
Okean 2 3.8 23:06:39 42° ESE 23:07:17 46° E 23:11:13 10° NNE
CZ-4C R/B 3.0 23:01:07 10° NW 23:08:16 87° NE 23:14:17 21° SE
NOSS 3-1 (C) 4.1 23:01:34 10° NW 23:08:57 73° SW 23:14:02 27° SSE
USA 290 3.5 23:10:46 31° E 23:10:46 31° E 23:13:09 10° NE
Cosmos 1238 Rocket 3.3 23:09:12 10° N 23:11:57 34° ENE 23:11:57 34° ENE
Gblst 52 Del rocket 4.3 23:08:51 10° WSW 23:15:15 89° NNW 23:20:57 10° ENE
Cosmos 2237 Rocket 3.6 23:14:56 22° SE 23:16:26 24° ESE 23:20:54 10° NE
KORONAS-FOTON 4.0 23:16:49 52° ESE 23:17:12 55° E 23:20:57 10° NNE
Cosmos 1470 3.1 23:14:46 10° NNW 23:18:31 49° W 23:19:01 46° WSW
Cosmos 1726 3.9 23:16:04 10° NW 23:18:53 21° W 23:19:26 20° WSW
Cosmos 1300 Rocket 3.7 23:15:35 10° NNW 23:19:53 61° W 23:20:51 47° SSW
COSMOS 2428 2.8 23:17:53 39° S 23:19:55 64° ESE 23:25:32 10° NNE
Cosmos 1745 Rocket 4.4 23:15:39 10° N 23:21:45 53° ENE 23:25:01 27° SE
PSLV R/B 4.1 23:18:23 10° NNE 23:22:41 49° E 23:23:40 41° SE
Cosmos 2151 Rocket 3.7 23:18:21 10° N 23:22:45 68° ENE 23:23:57 45° SE
ALOS 2 3.1 23:22:00 39° SW 23:22:57 45° W 23:27:12 10° NNW
USA 305 4.2 23:26:44 25° ESE 23:26:44 25° ESE 23:29:17 10° ENE
Cosmos 1242 Rocket 2.3 23:22:15 10° NNW 23:25:52 83° W 23:26:07 76° SSW
Cosmos 1937 Rocket 4.3 23:22:46 22° SW 23:25:54 47° WNW 23:31:02 10° NNE
Okean 2 Rocket 3.1 23:22:18 10° N 23:26:52 84° E 23:28:05 49° SSE
Cosmos 2360 Rocket 3.2 23:22:25 14° WSW 23:26:56 43° NW 23:32:20 10° NNE
Cosmos 405 Rocket 3.4 23:28:20 38° ESE 23:28:40 39° E 23:32:14 10° NNE
Cosmos 1943 Rocket 4.3 23:25:01 10° N 23:29:35 24° NE 23:34:07 10° E
In-Cosmos 22 4.1 23:29:31 39° S 23:31:42 90° E 23:37:12 10° NNE
Cosmos 1437 Rocket 3.4 23:29:06 10° N 23:32:44 44° ENE 23:33:33 37° ESE
Nimbus 7 Rocket 4.4 23:27:54 10° NNE 23:33:48 70° ESE 23:36:12 37° S
Cosmos 1908 3.1 23:30:28 10° N 23:34:16 76° E 23:34:48 62° SE
Cosmos 1867 3.5 23:33:44 39° SSW 23:35:48 75° SE 23:41:18 10° NE
Meteor 1-21 4.3 23:34:35 36° SSW 23:37:05 79° WNW 23:42:57 10° N
Cosmos 1626 1.9 23:37:36 69° SSE 23:37:55 77° E 23:41:37 10° NNE
SL-08 R/B 4.5 23:32:17 10° N 23:38:36 83° W 23:41:27 35° S
USA 215 3.3 23:37:01 10° NE 23:43:36 79° NNW 23:50:09 10° WSW
Cosmos 1953 2.7 23:39:47 10° N 23:43:45 54° ENE 23:44:46 41° SE
Cosmos 2278 Rocket 2.2 23:40:04 10° NNW 23:45:47 79° ENE 23:48:51 29° SE
Cosmos 468 4.4 23:41:48 10° NNW 23:47:04 84° WSW 23:49:03 39° SSE
Cosmos 1674 2.8 23:50:45 53° WSW 23:51:18 61° WNW 23:55:02 10° N
Sich 1 Rocket 4.2 23:48:54 10° NNW 23:53:03 42° W 23:54:00 36° SW
